[[{"header":{"parameterUnit":"m.s-1","parameterCategory":1,"la1":30.2991,"la2":30.254,"lo1":-89.0895,"lo2":-89.0444,"dy":0.0017,"dx":0.0017,"nx":28,"ny":28,"refTime":"2025-07-31T03:00:00:Z","depth":0,"parameterNumber":2,"parameterNumberName":"U-component_of_WINDS"},"data":[0,0,0,0,0,0,0,0,0,0,0,0,0,0,0,0,0,0,0,0,0,0,0,0,0,0,0,0,0,0,0,0,0,0,0,0,0,0,0,0,0,0,0,0,0,0,0,0,0,0,0,0,0,0,0,0,0,0,1.1803,1.1805,0,1.1918,1.1919,1.192,1.1953,1.1953,1.1952,1.1952,1.2072,1.2076,1.208,0,0,0,0,0,0,0,0,0,0,0,0,0,1.1617,1.162,1.1803,1.1805,1.1806,1.1917,1.1919,1.192,1.1953,1.1953,1.1952,1.1951,1.2071,1.2076,1.208,0,0,0,0,0,0,0,0,0,0,0,0,0,1.1711,1.1621,1.1803,1.1836,1.184,1.1917,1.1919,1.1921,1.1954,1.1953,1.1952,1.1951,1.207,1.2075,1.2081,1.2134,0,0,1.2098,1.2101,0,0,0,0,0,0,0,0,1.1706,1.1718,1.183,1.1834,1.1839,1.192,1.1897,1.1993,1.1954,1.1911,1.1951,1.195,1.2023,1.2032,1.2056,1.214,1.2145,1.2099,1.2102,1.2105,1.2106,0,0,0,0,0,0,0,1.1699,1.1713,1.1849,1.1831,1.1837,1.1846,1.1858,1.1916,1.1971,1.1914,1.1917,1.193,1.2025,1.205,1.2059,1.2147,1.2098,1.2104,1.2107,1.2109,1.228,1.2281,0,0,0,0,0,0,1.1686,1.1707,1.1845,1.1852,1.1768,1.185,1.1864,1.1895,1.197,1.1981,1.193,1.1931,1.2041,1.2052,1.2063,1.213,1.2104,1.211,1.2113,1.2279,1.228,1.2281,0,0,0,0,0,0,1.1682,1.1698,1.184,1.178,1.1799,1.1854,1.1889,1.1898,1.1923,1.1982,1.1993,1.1946,1.2041,1.2055,1.2116,1.2135,1.2112,1.2118,1.2277,1.2279,1.2281,1.2265,0,0,0,0,0,0,1.1677,1.1697,1.1717,1.1781,1.1802,1.189,1.189,1.1901,1.1932,1.1934,1.1999,1.201,1.2041,1.2107,1.2121,1.2142,1.2122,1.2276,1.2278,1.228,1.2264,1.2266,1.2267,0,0,0,0,0,1.167,1.1709,1.1718,1.1734,1.1829,1.1891,1.1904,1.1938,1.1934,1.1955,1.1993,1.2007,1.213,1.2113,1.213,1.2152,1.2275,1.2278,1.228,1.2263,1.2265,1.2267,0,0,0,0,0,0,1.1648,1.1718,1.1729,1.1789,1.1834,1.1897,1.1925,1.194,1.1988,1.1987,1.2029,1.2044,1.2101,1.2133,1.2113,1.2207,1.2203,1.2209,1.2184,1.2187,1.2189,1.218,1.2127,0,0,0,0,0,1.165,1.1694,1.1753,1.1801,1.1823,1.187,1.1898,1.1921,1.1969,1.1989,1.2031,1.2078,1.2127,1.2159,1.2208,1.2268,1.2283,1.2292,1.2294,1.2295,1.2299,1.2333,1.2337,1.229,1.229,1.229,0,0,1.1655,1.1699,1.1724,1.1798,1.1835,1.188,1.1886,1.1934,1.1967,1.1996,1.2055,1.2088,1.2144,1.2204,1.2233,1.2232,1.2316,1.2298,1.2298,1.2303,1.2336,1.234,1.2344,1.2291,1.2291,1.2291,0,0,1.1687,1.1725,1.1768,1.1805,1.186,1.1891,1.1901,1.1962,1.1984,1.2043,1.2066,1.2107,1.2191,1.223,1.226,1.2305,1.232,1.2319,1.2328,1.236,1.2364,1.2368,1.2383,1.2388,1.2324,1.2324,1.2324,0,1.1687,1.1755,1.1789,1.1835,1.1867,1.1893,1.1937,1.1972,1.2041,1.2062,1.206,1.2165,1.2205,1.2274,1.2284,1.2308,1.2321,1.2312,1.2361,1.2364,1.2368,1.2383,1.2389,1.2323,1.2323,1.2324,1.2324,0,1.1751,1.1798,1.1826,1.189,1.1925,1.197,1.2012,1.2043,1.2062,1.2093,1.2153,1.2201,1.2259,1.2277,1.2297,1.2349,1.2347,1.2352,1.2349,1.2372,1.2386,1.2393,1.2323,1.2323,1.2323,1.2323,0,0,1.1774,1.1854,1.1864,1.1893,1.1956,1.1993,1.2039,1.2094,1.212,1.2166,1.2206,1.2276,1.228,1.2315,1.2339,1.2367,1.2398,1.237,1.2371,1.2373,1.2458,1.2453,1.2459,1.2409,1.241,1.2411,1.2453,0,1.1813,1.1895,1.1927,1.1994,1.2037,1.2062,1.2102,1.2145,1.2175,1.2217,1.2251,1.2299,1.2302,1.2322,1.2351,1.2388,1.2416,1.2386,1.2446,1.2448,1.2431,1.2467,1.2462,1.2499,1.2459,1.246,1.2461,0,1.1871,1.1915,1.1986,1.2042,1.2062,1.2097,1.2149,1.2189,1.2238,1.2258,1.2295,1.2317,1.2367,1.2359,1.2428,1.2407,1.2434,1.2455,1.2458,1.2465,1.2456,1.2474,1.2512,1.2517,1.247,1.2469,1.2469,0,1.1879,1.1957,1.201,1.2034,1.21,1.2124,1.2153,1.2201,1.2232,1.2278,1.2298,1.235,1.2379,1.2419,1.2454,1.2446,1.2519,1.2516,1.2537,1.2536,1.2552,1.255,1.2594,1.2569,1.2569,1.2569,1.2569,0,1.1919,1.1962,1.2014,1.2046,1.2094,1.213,1.2177,1.2208,1.225,1.2289,1.2314,1.235,1.2395,1.2437,1.2465,1.2518,1.2531,1.2548,1.2555,1.2546,1.2543,1.2564,1.2562,1.2571,1.257,1.257,1.257,0,1.1937,1.1973,1.2032,1.2089,1.2105,1.2138,1.2187,1.222,1.225,1.2299,1.2312,1.236,1.2411,1.245,1.2517,1.2536,1.259,1.2598,1.2573,1.2577,1.2596,1.2594,1.2654,1.2664,1.2633,1.2633,1.2633,0,1.196,1.1993,1.2053,1.208,1.2109,1.2152,1.2183,1.222,1.2251,1.2308,1.2334,1.2386,1.2429,1.2509,1.255,1.2601,1.261,1.2628,1.2618,1.2607,1.2609,1.2607,1.261,1.2629,1.2629,1.2629,1.2629,0,1.1997,1.2013,1.2056,1.2105,1.2141,1.2182,1.2223,1.2244,1.2288,1.2322,1.2373,1.2406,1.2473,1.2524,1.2579,1.261,1.2627,1.2632,1.2639,1.263,1.2614,1.2622,1.2576,1.263,1.263,1.263,1.263,1.263,1.2019,1.2048,1.2095,1.2141,1.2176,1.2213,1.2246,1.228,1.2322,1.2378,1.2398,1.245,1.2498,1.2572,1.2603,1.2645,1.2646,1.2657,1.266,1.2662,1.2661,1.2607,1.2655,1.2655,1.2655,1.2655,1.2655,0,1.2056,1.2087,1.213,1.2186,1.2222,1.2233,1.2279,1.2309,1.2355,1.2397,1.2438,1.2497,1.2546,1.2591,1.2642,1.2667,1.2676,1.2679,1.2678,1.2684,1.2657,1.2645,1.2671,1.2671,1.2671,1.2671,1.2671,1.2671,1.208,1.2131,1.2152,1.222,1.2251,1.2301,1.2326,1.2361,1.2395,1.2458,1.2499,1.2527,1.257,1.2624,1.267,1.2682,1.27,1.2701,1.2714,1.2689,1.2686,1.2685,1.2673,1.2704,1.2704,1.2738,1.2738,1.2738]},{"header":{"parameterUnit":"m.s-1","parameterCategory":1,"la1":30.2991,"la2":30.254,"lo1":-89.0895,"lo2":-89.0444,"dy":0.0017,"dx":0.0017,"nx":28,"ny":28,"refTime":"2025-07-31T03:00:00:Z","depth":0,"parameterNumber":3,"parameterNumberName":"V-component_of_WINDS"},"data":[0,0,0,0,0,0,0,0,0,0,0,0,0,0,0,0,0,0,0,0,0,0,0,0,0,0,0,0,0,0,0,0,0,0,0,0,0,0,0,0,0,0,0,0,0,0,0,0,0,0,0,0,0,0,0,0,0,0,3.1419,3.1419,0,3.1379,3.1379,3.1378,3.1389,3.139,3.1391,3.1391,3.1344,3.1342,3.134,0,0,0,0,0,0,0,0,0,0,0,0,0,3.1498,3.1497,3.1419,3.1419,3.1418,3.1379,3.1379,3.1378,3.1389,3.139,3.1391,3.1392,3.1344,3.1342,3.134,0,0,0,0,0,0,0,0,0,0,0,0,0,3.1462,3.1496,3.142,3.1419,3.1419,3.138,3.1379,3.1378,3.1389,3.139,3.1391,3.1392,3.1345,3.1342,3.1339,3.1296,0,0,3.133,3.1329,0,0,0,0,0,0,0,0,3.1464,3.1459,3.142,3.1419,3.1419,3.1391,3.1389,3.135,3.1388,3.14,3.1391,3.1393,3.1358,3.1354,3.1344,3.1294,3.1292,3.133,3.1328,3.1327,3.1326,0,0,0,0,0,0,0,3.1466,3.146,3.1403,3.1419,3.1418,3.1419,3.1415,3.1382,3.1372,3.1399,3.14,3.1395,3.1358,3.1346,3.1342,3.1291,3.133,3.1327,3.1325,3.1324,3.1201,3.12,0,0,0,0,0,0,3.147,3.1463,3.1405,3.1402,3.1445,3.1416,3.1412,3.1398,3.1373,3.137,3.1394,3.1396,3.1351,3.1346,3.1341,3.1287,3.1327,3.1324,3.1322,3.1203,3.1201,3.12,0,0,0,0,0,0,3.1472,3.1465,3.1406,3.1433,3.1425,3.1414,3.1398,3.1397,3.1386,3.1369,3.1367,3.1385,3.1352,3.1345,3.1307,3.1286,3.1322,3.132,3.1205,3.1202,3.12,3.118,0,0,0,0,0,0,3.1474,3.1466,3.1451,3.1432,3.1424,3.1375,3.1397,3.1395,3.1381,3.1383,3.136,3.1357,3.1352,3.1312,3.1304,3.1282,3.1317,3.1206,3.1204,3.1201,3.1182,3.1177,3.1173,0,0,0,0,0,3.1477,3.1445,3.145,3.1443,3.1405,3.1374,3.1369,3.1366,3.1379,3.1363,3.1352,3.1358,3.129,3.1308,3.1299,3.1276,3.1208,3.1204,3.1201,3.1185,3.1178,3.1173,0,0,0,0,0,0,3.1459,3.1443,3.1448,3.141,3.1393,3.1376,3.1355,3.136,3.1338,3.134,3.1335,3.133,3.1291,3.128,3.13,3.1232,3.125,3.1245,3.124,3.1234,3.123,3.1232,3.1315,0,0,0,0,0,3.1451,3.143,3.1416,3.1383,3.1375,3.1367,3.1353,3.1352,3.1334,3.1327,3.1313,3.1294,3.1268,3.1251,3.1226,3.1181,3.1175,3.1161,3.1156,3.1153,3.1148,3.1121,3.1114,3.1189,3.1189,3.1189,0,0,3.1434,3.1422,3.1408,3.1379,3.1367,3.1342,3.1361,3.1334,3.1315,3.1322,3.1286,3.1275,3.1252,3.1211,3.1191,3.12,3.1126,3.1148,3.1146,3.1143,3.1117,3.111,3.1104,3.1187,3.1187,3.1188,0,0,3.1389,3.1379,3.1351,3.1338,3.1319,3.1314,3.1307,3.1289,3.1282,3.1246,3.1251,3.1227,3.1183,3.1166,3.1152,3.1101,3.1104,3.1093,3.1067,3.1042,3.1036,3.1031,3.101,3.1003,3.1088,3.1088,3.1088,0,3.1369,3.1335,3.1335,3.1308,3.1294,3.1302,3.1271,3.1258,3.1231,3.122,3.1231,3.1175,3.1161,3.1114,3.1102,3.1091,3.1081,3.1095,3.1037,3.1032,3.1027,3.1007,3.1,3.1087,3.1087,3.1087,3.1087,0,3.131,3.1285,3.1264,3.124,3.1224,3.1195,3.1189,3.1172,3.1173,3.1166,3.1127,3.1111,3.1082,3.1071,3.1071,3.1024,3.103,3.1039,3.1057,3.1018,3.1,3.0993,3.1085,3.1085,3.1086,3.1086,0,0,3.1252,3.1229,3.1221,3.121,3.119,3.117,3.114,3.1115,3.1099,3.108,3.1054,3.1016,3.1025,3.1008,3.1006,3.0984,3.0942,3.0996,3.0995,3.0985,3.0887,3.0879,3.0871,3.0945,3.0944,3.0942,3.0888,0,3.1205,3.1156,3.1155,3.1109,3.1085,3.1092,3.1066,3.1049,3.1041,3.1018,3.1008,3.0981,3.0995,3.0985,3.0964,3.0952,3.0922,3.0956,3.0918,3.0916,3.0922,3.0861,3.0853,3.0803,3.0881,3.088,3.0879,0,3.1143,3.1124,3.1076,3.1058,3.1048,3.1025,3.1001,3.0979,3.096,3.0955,3.0937,3.0938,3.0906,3.0926,3.088,3.0903,3.0887,3.0878,3.0876,3.0871,3.0894,3.0853,3.0787,3.0779,3.0868,3.0869,3.087,0,3.1103,3.1066,3.1032,3.1022,3.1001,3.0985,3.0975,3.0957,3.0941,3.0918,3.0908,3.0881,3.0866,3.0845,3.0837,3.0853,3.079,3.0811,3.0783,3.0783,3.0769,3.0769,3.0697,3.0761,3.0761,3.0761,3.0762,0,3.1049,3.1019,3.1014,3.0993,3.0958,3.0957,3.0922,3.0913,3.0897,3.0872,3.0876,3.0852,3.0845,3.0819,3.0813,3.0774,3.0768,3.0761,3.076,3.076,3.0761,3.0749,3.0751,3.0759,3.076,3.076,3.0761,0,3.0999,3.0995,3.0958,3.0942,3.0937,3.0912,3.0897,3.0875,3.0868,3.0837,3.0829,3.0817,3.0787,3.0778,3.0741,3.0737,3.0691,3.0693,3.0698,3.0698,3.067,3.0672,3.0587,3.0575,3.0648,3.0647,3.0647,0,3.0964,3.0941,3.0923,3.0908,3.0898,3.0874,3.0858,3.0855,3.0838,3.0814,3.0794,3.0765,3.0742,3.0692,3.0679,3.065,3.065,3.0623,3.0646,3.0647,3.0648,3.0649,3.0645,3.0617,3.0617,3.0616,3.0616,0,3.0902,3.0901,3.088,3.0857,3.0839,3.082,3.0802,3.0789,3.0783,3.0763,3.0733,3.0715,3.0678,3.0648,3.0619,3.0606,3.0608,3.0609,3.06,3.06,3.0603,3.0599,3.0684,3.061,3.0611,3.0611,3.0611,3.0612,3.0857,3.0837,3.0821,3.0796,3.0783,3.0766,3.0745,3.0736,3.0712,3.0683,3.0682,3.0649,3.0628,3.059,3.0576,3.0548,3.0556,3.0544,3.0541,3.0538,3.0535,3.0609,3.0543,3.0543,3.0543,3.0543,3.0543,0,3.0794,3.0784,3.0762,3.0738,3.0717,3.0725,3.0705,3.0687,3.0659,3.0641,3.0618,3.0582,3.0553,3.0538,3.0508,3.0489,3.0489,3.0481,3.0481,3.0477,3.0531,3.054,3.0481,3.0481,3.0481,3.0481,3.0481,3.0481,3.0759,3.0724,3.0721,3.0679,3.0669,3.0639,3.0627,3.061,3.0595,3.0557,3.0533,3.0524,3.0506,3.0475,3.0448,3.0443,3.0431,3.0422,3.0418,3.0468,3.0474,3.048,3.0489,3.042,3.042,3.0367,3.0367,3.0366]}]]